Find OneWeb SL0592

NORAD ID: 54658 Int'l Des: 2022-166 Owner: ONEWEBN Country: UK Constellation: oneweb operational
LEOCIRCULARPOLARONEWEB_TYPE

リアルタイム位置

3D地球を読み込み中...

OneWeb SL0592について

説明を読み込み中...

次回通過

Passes for default location (London). Set your location on the main map for personalized predictions.

高度履歴

Loading altitude history...

軌道要素

1 54658U 22166S 26120.85123540 .00000043 00000-0 73177-4 0 9990
2 54658 87.9229 253.3837 0001881 100.5778 259.5568 13.21827529165185
Epoch: Apr 30, 2026 • Age: 14 hours

現在のステータス

高度 1188.8 km
速度 7.26 km/s
衛星直下点 -27.34°S, 129.58°W
打ち上げ日 Dec 8, 2022
運用期間 3.3 years
タイプ internet

技術仕様

分類 Payload
質量 148.00 kg
乾燥質量 140.00 kg
総質量 148.00 kg
長さ 1.30 m
直径 1.00 m
スパン 5.00 m
形状 Trapezoid+2 pan
製造者 ONEWUS
バスタイプ ARROW
フェーズステータス In Orbit
所有者/国 ONEWEBN/UK

Most Searched